Orbital Elements at Epoch 2459000.5 (2020-May-31.0) TDB
Reference: JPL 31 (heliocentric ecliptic J2000)
Element | Value | Uncertainty (1-sigma) | Units |
e | .1412159290007746 | 4.3457e-08 | |
a | 2.553587373207912 | 1.3937e-08 | au |
q | 2.192980160015709 | 1.1056e-07 | au |
i | 9.246510072977951 | 4.3182e-06 | deg |
node | 277.57840509374 | 3.4107e-05 | deg |
peri | 329.1616322364711 | 3.8569e-05 | deg |
M | 238.7047972841468 | 2.0279e-05 | deg |
tp | 2459502.687194290133 (2021-Oct-15.18719429) | 8.5402e-05 | TDB |
period | 1490.47436251837 4.08 | 1.2202e-05 3.341e-08 | d yr |
n | .2415338425491119 | 1.9773e-09 | deg/d |
Q | 2.914194586400115 | 1.5905e-08 | au |
|
| | Orbit Determination Parameters
Additional Information
|